SL-8 R/B

Satellite information

Favourite Embed

Satellite Type and Status

ROCKET BODYIN ORBIT

Key statistics

Satellite SL-8 R/B at a glance.

Uptime

13656

Days in orbit

Revolutions

≈ 13.8

Per day

Orbit

LEO

Low Earth Orbit

Inclination

82.9

Latest

Satellite identification and parameters

Extended collection of information and parameters for SL-8 R/B.

Object identification

Identified? True

Debris? False

Object name: SL-8 R/B

International designator: 1987-106B

Object number (NORAD): 18710

Object ID (CCSDS): 18710

Country: COMMONWEALTH OF INDEPENDENT STATES (CIS)

Current information (Y/N): Y

RCS size: LARGE

Orbital parameters

Period: 104.631 minutes

Inclination: 82.9109 deg

SMA: 7355.322 km

Apoapsis: 993.423 km

Periapsis: 960.952 km

RAAN: 335.1414 deg

Eccentricy: 0.0022073

Argument of periapsis: 310.1347 deg

Mean anomaly: 106.3317 deg

Mean motion: 13.76259099 rev/day

Mean motion (dot): 0.00000014 rev/day2

B* drag term: -0.0000012507 1/REarth

Two-line elements (TLE)

Creation date: May 12, 2025, 7:41 p.m.

Reference frame: TEME

Reference center: EARTH

Epoch: May 12, 2025, 1:15 p.m. UTC

TLE line 0: 0 SL-8 R/B

TLE line 1: 1 18710U 87106B 25132.55247262 .00000014 00000-0 -12507-5 0 9991

TLE line 2: 2 18710 82.9109 335.1414 0022073 310.1347 106.3317 13.76259099877039

Live tracking on map

Real-time ground track for satellite SL-8 R/B.

In-orbit conjunctions

A list of the most updated potential collisions computed for object SL-8 R/B.

Target Orbit TCA Probability of collision Miss distance Type
SL-8 DEB LEO 2024-11-15 23:28:25 0.0001366403 219.0 (m) DEBRIS
COSMOS 2251 DEB LEO 2024-07-15 15:16:58 0.0001841806 471.0 (m) DEBRIS

Associated space launch

Navigation satellite providing location information for the Tsiklon-B navigation system

SL-8 R/B was lifted into orbit during the mission ‘Kosmos-3M | Parus 61’, on board a Kosmos-3M space rocket.

The launch took place on Dec. 23, 1987, 8:22 p.m. from 133/3 (133L).

For more information about the launch, click the button.

Launch to space Kosmos-3M | Parus 61
Kosmos-3M | Parus 61

Agency: N/A

Status: Launch Successful

Launch date: Dec. 23, 1987, 8:22 p.m. UTC

Rocket: Kosmos-3M

Launch pad: 133/3 (133L)

Location: Plesetsk Cosmodrome, Russian Federation

...

Latest news about this satellite

There are no fresh news available about this satellite. Check back as we update our databases every day.


Newsletter sign-up

Weekly statistics, charts and insights to help you stay on top of the space industry.